WB9TLH-11 Weather Reports


time (UTC)temp
F
wind
direction
speed
knots
gust
knots
rain 1hr
in
rain 24hr
in
rain mn
in
humidity
%
barometer
mb
20260905172752 91 157 0.9 5.2 0.00 0.01 0.01 49 1012.6
20260905172252 91 157 1.7 2.6 0.00 0.01 0.01 50 1012.6
20260905172229 91 157 1.7 2.6 0.00 0.01 0.01 50 1012.6
20260905171752 91 157 1.7 5.2 0.00 0.01 0.01 48 1012.6
20260905171252 90 147 1.7 3.5 0.00 0.01 0.01 51 1012.6
20260905171229 90 147 1.7 3.5 0.00 0.01 0.01 51 1012.6
20260905170752 90 148 1.7 4.3 0.00 0.01 0.01 51 1012.7
20260905170252 89 80 0.9 5.2 0.00 0.01 0.01 52 1013.0
20260905170230 89 80 0.9 5.2 0.00 0.01 0.01 52 1013.0
20260905165752 89 155 0.9 2.6 0.00 0.01 0.01 51 1013.1
20260905165252 89 155 0.9 4.3 0.00 0.01 0.01 53 1013.2
20260905164752 89 155 0.9 3.5 0.00 0.01 0.01 54 1013.4
20260905164252 88 155 2.6 5.2 0.00 0.01 0.01 53 1013.3
20260905163752 88 157 2.6 7.0 0.00 0.01 0.01 53 1013.3
20260905163252 88 157 1.7 7.0 0.00 0.01 0.01 53 1013.3
20260905163229 88 157 1.7 7.0 0.00 0.01 0.01 53 1013.3
20260905162752 88 160 1.7 4.3 0.00 0.01 0.01 54 1013.2
20260905162252 87 144 1.7 2.6 0.00 0.01 0.01 54 1013.1
20260905162229 87 144 1.7 3.5 0.00 0.01 0.01 54 1013.2
20260905161752 87 145 2.6 4.3 0.00 0.01 0.01 54 1013.2
20260905161252 86 159 2.6 7.8 0.00 0.01 0.01 57 1013.1
20260905161230 86 159 2.6 7.8 0.00 0.01 0.01 55 1013.1
20260905160752 86 161 2.6 7.0 0.00 0.01 0.01 54 1013.2
20260905160252 86 149 2.6 5.2 0.00 0.01 0.01 55 1013.1
20260905160229 86 163 2.6 5.2 0.00 0.01 0.01 55 1013.1
20260905155752 86 92 1.7 5.2 0.00 0.01 0.01 55 1013.3
20260905155252 86 161 2.6 5.2 0.00 0.01 0.01 55 1013.4
20260905155229 85 161 1.7 5.2 0.00 0.01 0.01 55 1013.4
20260905154752 85 165 1.7 6.1 0.00 0.01 0.01 55 1013.6
20260905154252 85 119 1.7 2.6 0.00 0.01 0.01 56 1013.6
20260905153752 84 111 1.7 5.2 0.00 0.01 0.01 57 1013.6
20260905153252 84 150 2.6 5.2 0.00 0.01 0.01 58 1013.6
20260905152752 83 148 3.5 6.1 0.00 0.01 0.01 58 1013.6
20260905152252 83 153 3.5 9.6 0.00 0.01 0.01 60 1013.6
20260905152229 83 153 3.5 9.6 0.00 0.01 0.01 60 1013.6
20260905151752 82 99 2.6 6.1 0.00 0.01 0.01 62 1013.6
20260905151252 82 83 2.6 7.0 0.00 0.01 0.01 61 1013.5
20260905151229 82 83 2.6 7.0 0.00 0.01 0.01 63 1013.5
20260905150752 82 74 3.5 6.1 0.00 0.01 0.01 62 1013.5
20260905150252 82 86 2.6 7.0 0.00 0.01 0.01 62 1013.5
20260905150230 82 69 2.6 6.1 0.00 0.01 0.01 62 1013.5
20260905145752 81 102 3.5 7.8 0.00 0.01 0.01 63 1013.6
20260905145252 81 101 3.5 7.0 0.00 0.01 0.01 62 1013.7
20260905145231 81 101 3.5 7.0 0.00 0.01 0.01 62 1013.7
20260905144752 81 137 3.5 8.7 0.00 0.01 0.01 62 1013.8
20260905144252 81 99 2.6 6.1 0.00 0.01 0.01 63 1013.9
20260905144231 81 115 2.6 6.1 0.00 0.01 0.01 64 1013.9
20260905143752 81 162 3.5 7.0 0.00 0.01 0.01 65 1013.8
20260905143252 80 82 3.5 8.7 0.00 0.01 0.01 65 1013.8
20260905143232 80 123 4.3 7.0 0.00 0.01 0.01 65 1013.8
20260905142752 80 85 4.3 7.0 0.00 0.01 0.01 67 1013.8
20260905142252 80 157 4.3 10.4 0.00 0.01 0.01 67 1013.7
20260905142233 80 157 4.3 10.4 0.00 0.01 0.01 67 1013.8
20260905141752 80 160 3.5 7.0 0.00 0.01 0.01 69 1013.7
20260905141252 80 78 2.6 7.8 0.00 0.01 0.01 68 1013.8
20260905141231 80 78 2.6 7.8 0.00 0.01 0.01 68 1013.9
20260905140752 79 90 2.6 7.8 0.00 0.01 0.01 69 1013.8
20260905140252 79 90 2.6 7.8 0.00 0.01 0.01 69 1013.8
20260905140232 79 120 2.6 7.8 0.00 0.01 0.01 69 1013.8
20260905135752 79 120 2.6 7.0 0.00 0.01 0.01 71 1013.8
20260905135252 79 78 2.6 7.8 0.00 0.01 0.01 71 1013.9
20260905135230 79 102 2.6 7.8 0.00 0.01 0.01 71 1013.9
20260905134752 79 88 2.6 7.0 0.00 0.01 0.01 72 1013.9
20260905134252 78 94 2.6 7.8 0.01 0.01 0.01 74 1014.0
20260905133752 78 71 3.5 8.7 0.01 0.01 0.01 74 1014.0
20260905133252 78 79 2.6 7.8 0.01 0.01 0.01 75 1013.8
20260905132752 77 77 2.6 7.8 0.01 0.01 0.01 76 1013.9
20260905132252 77 115 2.6 4.3 0.01 0.01 0.01 77 1013.8
20260905132230 77 115 2.6 7.0 0.01 0.01 0.01 77 1013.8
20260905131752 77 103 2.6 7.8 0.01 0.01 0.01 77 1013.8
20260905131252 76 48 2.6 7.0 0.01 0.01 0.01 78 1013.8
20260905131230 76 95 2.6 7.0 0.01 0.01 0.01 78 1013.8
20260905130752 76 105 1.7 7.8 0.01 0.01 0.01 79 1014.0
20260905130252 76 109 0.9 6.1 0.01 0.01 0.01 79 1013.9
20260905130230 76 109 0.9 6.1 0.01 0.01 0.01 79 1013.9
20260905125752 76 89 0.9 6.1 0.01 0.01 0.01 77 1013.8
20260905125252 77 89 0.9 6.1 0.01 0.01 0.01 76 1013.8
20260905125230 77 87 0.9 4.3 0.01 0.01 0.01 76 1013.7
20260905124752 78 127 0.9 2.6 0.01 0.01 0.01 74 1013.8
20260905124252 79 107 1.7 3.5 0.00 0.00 0.00 72 1013.7
20260905123752 80 350 0.9 7.8 0.00 0.00 0.00 70 1013.6
20260905123252 80 355 0.0 0.0 0.00 0.00 0.00 67 1013.3
20260905122752 80 355 0.0 0.0 0.00 0.00 0.00 66 1012.9
20260905122252 80 355 0.0 0.0 0.00 0.00 0.00 67 1012.8
20260905122231 80 355 0.0 0.0 0.00 0.00 0.00 66 1012.8
20260905121752 80 355 0.0 0.0 0.00 0.00 0.00 67 1012.8
20260905121252 80 355 0.0 0.0 0.00 0.00 0.00 66 1012.9
20260905120752 80 355 0.0 0.0 0.00 0.00 0.00 66 1012.8
20260905120252 80 355 0.0 0.0 0.00 0.00 0.00 66 1012.8
20260905120230 80 355 0.0 0.0 0.00 0.00 0.00 66 1012.8
20260905115752 80 355 0.0 0.0 0.00 0.00 0.00 66 1012.6
20260905115252 80 355 0.0 0.0 0.00 0.00 0.00 66 1012.6
20260905115230 80 355 0.0 0.0 0.00 0.00 0.00 67 1012.6
20260905114753 80 355 0.0 0.0 0.00 0.00 0.00 67 1012.6
20260905114252 79 355 0.0 0.9 0.00 0.00 0.00 67 1012.6
20260905113752 79 355 0.0 0.0 0.00 0.00 0.00 67 1012.6
20260905113252 79 355 0.0 0.0 0.00 0.00 0.00 67 1012.5
20260905112752 79 355 0.0 0.9 0.00 0.00 0.00 68 1012.5
20260905112252 79 355 0.0 0.0 0.00 0.00 0.00 68 1012.3
20260905111752 79 355 0.0 1.7 0.00 0.00 0.00 68 1012.2
20260905111252 79 355 0.0 0.9 0.00 0.00 0.00 68 1012.2
20260905110752 79 355 0.0 0.9 0.00 0.00 0.00 68 1012.2
20260905110252 79 355 0.0 0.9 0.00 0.00 0.00 69 1012.2
20260905110230 79 355 0.0 0.9 0.00 0.00 0.00 69 1012.2
20260905105752 79 355 0.0 0.9 0.00 0.00 0.00 70 1012.1
20260905105252 79 355 0.0 0.0 0.00 0.00 0.00 70 1012.1
20260905104752 79 355 0.0 0.0 0.00 0.00 0.00 69 1012.2
20260905104252 79 355 0.0 0.0 0.00 0.00 0.00 69 1012.2
20260905104230 79 355 0.0 0.0 0.00 0.00 0.00 69 1012.2
20260905103752 79 355 0.0 0.0 0.00 0.00 0.00 70 1012.2
20260905103252 79 355 0.0 0.0 0.00 0.00 0.00 70 1012.2
20260905103231 79 355 0.0 0.0 0.00 0.00 0.00 70 1012.3
20260905102752 79 355 0.0 0.0 0.00 0.00 0.00 70 1012.3
20260905102230 79 355 0.0 0.0 0.00 0.00 0.00 71 1012.4
20260905101752 79 355 0.0 0.0 0.00 0.00 0.00 71 1012.3
20260905101252 79 355 0.0 0.0 0.00 0.00 0.00 72 1012.3
20260905101230 79 355 0.0 0.0 0.00 0.00 0.00 72 1012.4
20260905100752 79 355 0.0 0.0 0.00 0.00 0.00 72 1012.3
20260905100252 79 355 0.0 0.0 0.00 0.00 0.00 72 1012.3
20260905095752 79 355 0.0 0.0 0.00 0.00 0.00 72 1012.3
20260905095253 79 355 0.0 0.0 0.00 0.00 0.00 72 1012.2
20260905094753 79 355 0.0 0.0 0.00 0.00 0.00 72 1012.2
20260905094230 79 355 0.0 0.0 0.00 0.00 0.00 72 1012.2
20260905093753 79 355 0.0 0.0 0.00 0.00 0.00 72 1012.2
20260905093230 79 355 0.0 0.0 0.00 0.00 0.00 72 1012.2
20260905092753 79 355 0.0 0.0 0.00 0.00 0.00 72 1012.1
20260905092229 80 355 0.0 0.0 0.00 0.00 0.00 71 1012.1
20260905091753 80 355 0.0 0.0 0.00 0.00 0.00 71 1012.1
20260905091253 80 355 0.0 0.0 0.00 0.00 0.00 71 1012.0
20260905090753 80 355 0.0 0.0 0.00 0.00 0.00 71 1012.1
20260905090253 80 355 0.0 0.0 0.00 0.00 0.00 70 1012.1
20260905090229 80 355 0.0 0.0 0.00 0.00 0.00 70 1012.0
20260905085753 80 355 0.0 0.0 0.00 0.00 0.00 70 1012.0
20260905085253 80 355 0.0 0.0 0.00 0.00 0.00 70 1012.0
20260905084753 80 355 0.0 0.0 0.00 0.00 0.00 70 1011.9
20260905084253 80 355 0.0 0.0 0.00 0.00 0.00 70 1011.8
20260905083753 81 355 0.0 0.0 0.00 0.00 0.00 70 1011.7
20260905083232 81 355 0.0 0.0 0.00 0.00 0.00 70 1011.7
20260905082753 81 355 0.0 0.0 0.00 0.00 0.00 70 1011.7
20260905082231 81 355 0.0 0.0 0.00 0.00 0.00 70 1011.6
20260905081753 81 355 0.0 0.0 0.00 0.00 0.00 70 1011.6
20260905081253 81 355 0.0 0.0 0.00 0.00 0.00 70 1011.6
20260905080753 81 355 0.0 0.0 0.00 0.00 0.00 70 1011.6
20260905080229 81 355 0.0 0.0 0.00 0.00 0.00 70 1011.7
20260905075753 81 355 0.0 0.0 0.00 0.00 0.00 70 1011.6
20260905075230 81 355 0.0 0.0 0.00 0.00 0.00 69 1011.6
20260905074753 81 355 0.0 0.0 0.00 0.00 0.00 69 1011.6
20260905074253 81 355 0.0 0.0 0.00 0.00 0.00 68 1011.6
20260905074231 81 355 0.0 0.0 0.00 0.00 0.00 68 1011.5
20260905073753 82 355 0.0 0.0 0.00 0.00 0.00 68 1011.5
20260905073229 82 355 0.0 0.0 0.00 0.00 0.00 67 1011.6
20260905072753 82 355 0.0 0.0 0.00 0.00 0.00 67 1011.6
20260905072253 82 355 0.0 0.0 0.00 0.00 0.00 67 1011.6
20260905072230 82 355 0.0 0.0 0.00 0.00 0.00 67 1011.7
20260905071753 82 355 0.0 0.0 0.00 0.00 0.00 67 1011.8
20260905071230 82 355 0.0 0.0 0.00 0.00 0.00 66 1011.9
20260905070753 82 355 0.0 0.0 0.00 0.00 0.00 67 1012.0
20260905070253 82 355 0.0 0.0 0.00 0.00 0.00 67 1012.1
20260905070232 82 355 0.0 0.0 0.00 0.00 0.00 67 1012.0
20260905065753 82 355 0.0 0.0 0.00 0.00 0.00 67 1012.1
20260905065231 82 355 0.0 0.0 0.00 0.00 0.00 67 1012.2
20260905064753 82 355 0.0 0.0 0.00 0.00 0.00 67 1012.2
20260905064253 82 355 0.0 0.0 0.00 0.00 0.00 67 1012.1
20260905063753 82 355 0.0 0.0 0.00 0.00 0.00 67 1012.2
20260905063253 82 355 0.0 0.0 0.00 0.00 0.00 67 1012.2
20260905062753 82 355 0.0 0.0 0.00 0.00 0.00 67 1012.2
20260905062229 83 355 0.0 0.0 0.00 0.00 0.00 66 1012.2
20260905061753 83 355 0.0 0.0 0.00 0.00 0.00 66 1012.2
20260905061230 83 355 0.0 0.0 0.00 0.00 0.00 66 1012.4
20260905060753 83 355 0.0 0.0 0.00 0.00 0.00 66 1012.4
20260905060231 83 355 0.0 0.0 0.00 0.00 0.00 66 1012.4
20260905055753 83 355 0.0 0.0 0.00 0.00 0.00 65 1012.4
20260905055253 83 355 0.0 0.0 0.00 0.00 0.00 65 1012.5
20260905054753 83 355 0.0 0.0 0.00 0.00 0.00 65 1012.5
20260905054231 83 355 0.0 0.0 0.00 0.00 0.00 65 1012.6
20260905053753 84 355 0.0 0.0 0.00 0.00 0.00 65 1012.6
20260905053253 84 355 0.0 0.0 0.00 0.00 0.00 65 1012.7
20260905053230 84 355 0.0 0.0 0.00 0.00 0.00 64 1012.7
20260905052753 84 355 0.0 0.0 0.00 0.00 0.00 64 1012.8
20260905052253 84 355 0.0 0.0 0.00 0.00 0.00 64 1012.7
20260905051753 84 355 0.0 0.0 0.00 0.00 0.00 64 1012.7
20260905051253 84 355 0.0 0.0 0.00 0.00 0.00 63 1012.7
20260905050753 84 355 0.0 0.0 0.00 0.00 0.00 63 1012.8
20260905050231 84 355 0.0 0.0 0.00 0.00 0.00 63 1012.8
20260905045753 84 355 0.0 0.0 0.00 0.00 0.00 63 1012.9
20260905045253 84 355 0.0 0.0 0.00 0.00 0.00 63 1012.9
20260905044753 84 355 0.0 0.0 0.00 0.00 0.00 63 1012.9
20260905044231 84 355 0.0 0.0 0.00 0.00 0.00 63 1013.0
20260905043753 84 355 0.0 0.0 0.00 0.00 0.00 63 1013.0
20260905043253 84 355 0.0 0.0 0.00 0.00 0.00 63 1012.9
20260905042753 84 355 0.0 0.0 0.00 0.00 0.00 63 1012.9
20260905042253 84 355 0.0 0.0 0.00 0.00 0.00 63 1012.9
20260905041753 84 355 0.0 0.0 0.00 0.00 0.00 63 1012.8
20260905041231 84 355 0.0 0.0 0.00 0.00 0.00 63 1012.9
20260905040753 84 355 0.0 0.0 0.00 0.00 0.00 63 1012.8
20260905040231 84 355 0.0 0.0 0.00 0.00 0.00 63 1012.9
20260905035753 84 355 0.0 0.0 0.00 0.00 0.00 63 1012.9
20260905035231 84 355 0.0 0.0 0.00 0.00 0.00 63 1013.0
20260905034753 84 355 0.0 0.0 0.00 0.00 0.00 62 1013.0
20260905034253 84 355 0.0 0.0 0.00 0.00 0.00 62 1013.0
20260905034231 84 355 0.0 0.0 0.00 0.00 0.00 62 1012.9
20260905033753 85 355 0.0 0.0 0.00 0.00 0.00 62 1013.0
20260905033253 85 355 0.0 0.0 0.00 0.00 0.00 62 1013.0
20260905032753 85 355 0.0 0.0 0.00 0.00 0.00 62 1012.9
20260905032232 85 355 0.0 0.0 0.00 0.00 0.00 61 1012.9
20260905031753 85 355 0.0 0.0 0.00 0.00 0.00 62 1013.0
20260905031253 85 355 0.0 0.0 0.00 0.00 0.00 61 1013.0
20260905031231 85 355 0.0 0.0 0.00 0.00 0.00 61 1013.1
20260905030753 85 355 0.0 0.0 0.00 0.00 0.00 61 1013.0
20260905030253 86 355 0.0 0.0 0.00 0.00 0.00 61 1012.9
20260905025753 86 355 0.0 0.0 0.00 0.00 0.00 60 1012.9
20260905025253 86 355 0.0 0.0 0.00 0.00 0.00 60 1012.9
20260905025232 86 355 0.0 0.0 0.00 0.00 0.00 60 1012.8
20260905024753 86 355 0.0 0.0 0.00 0.00 0.00 59 1012.9
20260905024231 86 355 0.0 0.0 0.00 0.00 0.00 59 1012.8
20260905023753 86 355 0.0 0.0 0.00 0.00 0.00 59 1012.8
20260905023253 86 355 0.0 0.0 0.00 0.00 0.00 58 1012.9
20260905022753 86 355 0.0 0.0 0.00 0.00 0.00 58 1013.0
20260905022253 86 355 0.0 0.0 0.00 0.00 0.00 58 1012.9
20260905022231 86 355 0.0 0.0 0.00 0.00 0.00 58 1013.0
20260905021753 86 355 0.0 0.0 0.00 0.00 0.00 58 1013.0
20260905021253 85 355 0.0 0.0 0.00 0.00 0.00 59 1013.0
20260905021231 85 355 0.0 0.0 0.00 0.00 0.00 59 1012.9
20260905020753 85 355 0.0 0.0 0.00 0.00 0.00 59 1012.9
20260905020237 86 355 0.0 0.0 0.00 0.00 0.00 59 1012.8
20260905015753 86 355 0.0 0.0 0.00 0.00 0.00 58 1012.8
20260905015253 86 355 0.0 0.0 0.00 0.00 0.00 58 1012.9
20260905015231 86 355 0.0 0.0 0.00 0.00 0.00 58 1012.8
20260905014753 86 355 0.0 0.0 0.00 0.00 0.00 58 1012.8
20260905014253 87 355 0.0 0.0 0.00 0.00 0.00 58 1012.7
20260905013753 87 355 0.0 0.0 0.00 0.00 0.00 57 1012.6
20260905013253 87 355 0.0 0.0 0.00 0.00 0.00 56 1012.6
20260905013237 87 355 0.0 0.0 0.00 0.00 0.00 56 1012.5
20260905012753 87 355 0.0 0.0 0.00 0.00 0.00 56 1012.5
20260905012253 87 355 0.0 0.0 0.00 0.00 0.00 56 1012.5
20260905011753 87 355 0.0 0.0 0.00 0.00 0.00 56 1012.4
20260905011253 87 355 0.0 0.0 0.00 0.00 0.00 56 1012.4
20260905011231 87 355 0.0 0.0 0.00 0.00 0.00 56 1012.5
20260905010753 87 355 0.0 0.0 0.00 0.00 0.00 56 1012.4
20260905010253 87 355 0.0 0.0 0.00 0.00 0.00 55 1012.4
20260905005753 87 355 0.0 0.0 0.00 0.00 0.00 56 1012.4
20260905005254 88 355 0.0 0.0 0.00 0.00 0.00 55 1012.3
20260905005231 87 355 0.0 0.0 0.00 0.00 0.00 55 1012.3
20260905004754 88 355 0.0 0.0 0.00 0.00 0.00 55 1012.2
20260905004254 88 355 0.0 0.0 0.00 0.00 0.00 54 1012.2
20260905003754 88 355 0.0 0.0 0.00 0.00 0.00 54 1012.3
20260905003254 88 355 0.0 0.0 0.00 0.00 0.00 54 1012.2
20260905002754 88 355 0.0 0.0 0.00 0.00 0.00 54 1012.3
20260905002231 89 355 0.0 0.0 0.00 0.00 0.00 54 1012.2
20260905001754 89 355 0.0 0.0 0.00 0.00 0.00 54 1012.1
20260905001232 89 355 0.0 0.0 0.00 0.00 0.00 53 1012.1
20260905000754 89 355 0.0 0.0 0.00 0.00 0.00 53 1012.1
20260905000233 89 355 0.0 0.0 0.00 0.00 0.00 52 1012.1
20260904235754 90 355 0.0 0.0 0.00 0.00 0.00 51 1012.1
20260904235254 90 355 0.0 0.0 0.00 0.00 0.00 51 1012.1
20260904234754 90 355 0.0 0.0 0.00 0.00 0.00 51 1012.0
20260904234232 90 355 0.0 0.0 0.00 0.00 0.00 51 1012.0
20260904233754 90 355 0.0 0.0 0.00 0.00 0.00 51 1012.1
20260904233232 91 355 0.0 0.0 0.00 0.00 0.00 51 1012.1
20260904232754 91 355 0.0 0.0 0.00 0.00 0.00 51 1012.1
20260904232231 91 355 0.0 0.0 0.00 0.00 0.00 51 1012.0
20260904231754 91 355 0.0 0.0 0.00 0.00 0.00 51 1012.0
20260904231254 91 355 0.0 0.0 0.00 0.00 0.00 52 1011.9
20260904231231 91 355 0.0 0.0 0.00 0.00 0.00 53 1011.9
20260904230754 91 355 0.0 0.0 0.00 0.00 0.00 53 1011.9
20260904230231 91 355 0.0 0.0 0.00 0.00 0.00 51 1012.0
20260904225754 91 355 0.0 0.0 0.00 0.00 0.00 51 1012.0
20260904225254 91 355 0.0 0.0 0.00 0.00 0.00 50 1012.1
20260904224754 91 355 0.0 0.0 0.00 0.00 0.00 49 1012.1
20260904224254 92 355 0.0 0.0 0.00 0.00 0.00 49 1012.1
20260904224231 92 355 0.0 0.0 0.00 0.00 0.00 49 1012.2
20260904223754 92 355 0.0 0.0 0.00 0.00 0.00 50 1012.2
20260904223254 92 355 0.0 0.0 0.00 0.00 0.00 50 1012.2
20260904223231 92 355 0.0 0.0 0.00 0.00 0.00 50 1012.1
20260904222754 92 355 0.0 0.0 0.00 0.00 0.00 50 1012.1
20260904222231 92 355 0.0 0.0 0.00 0.00 0.00 50 1012.1
20260904221754 92 355 0.0 0.0 0.00 0.00 0.00 48 1012.1
20260904221231 92 355 0.0 0.0 0.00 0.00 0.00 49 1012.1
20260904220754 92 355 0.0 0.0 0.00 0.00 0.00 49 1012.0
20260904220254 92 355 0.0 0.0 0.00 0.00 0.00 47 1012.1
20260904215754 92 355 0.0 0.0 0.00 0.00 0.00 51 1012.1
20260904215232 93 355 0.0 0.0 0.00 0.00 0.00 49 1012.3
20260904214754 93 355 0.0 0.0 0.00 0.00 0.00 48 1012.3
20260904214254 93 355 0.0 0.0 0.00 0.00 0.00 48 1012.4
20260904213754 93 355 0.0 0.0 0.00 0.00 0.00 49 1012.4
20260904213254 93 355 0.0 0.0 0.00 0.00 0.00 49 1012.4
20260904213231 93 355 0.0 0.0 0.00 0.00 0.00 49 1012.5
20260904212754 93 355 0.0 0.0 0.00 0.00 0.00 50 1012.4
20260904212231 93 355 0.0 0.0 0.00 0.00 0.00 51 1012.4
20260904211754 93 355 0.0 0.0 0.00 0.00 0.00 48 1012.5
20260904211231 93 355 0.0 0.0 0.00 0.00 0.00 48 1012.5
20260904210754 93 355 0.0 0.9 0.00 0.00 0.00 47 1012.6
20260904210231 93 355 0.0 0.9 0.00 0.00 0.00 46 1012.6
20260904205754 94 355 0.0 0.0 0.00 0.00 0.00 47 1012.7
20260904205254 94 355 0.0 0.0 0.00 0.00 0.00 45 1012.7
20260904205232 94 355 0.0 0.0 0.00 0.00 0.00 44 1012.7
20260904204754 94 355 0.0 0.9 0.00 0.00 0.00 44 1012.7
20260904204254 94 355 0.0 1.7 0.00 0.00 0.00 43 1012.8
20260904203754 94 355 0.0 0.0 0.00 0.00 0.00 46 1012.8
20260904203254 94 355 0.0 0.9 0.00 0.00 0.00 45 1012.9
20260904202754 94 355 0.0 0.9 0.00 0.00 0.00 44 1012.9
20260904202254 94 355 0.0 1.7 0.00 0.00 0.00 44 1012.9
20260904202231 94 355 0.0 1.7 0.00 0.00 0.00 44 1013.0
20260904201754 94 355 0.0 0.9 0.00 0.00 0.00 45 1013.0
20260904201254 94 355 0.0 2.6 0.00 0.00 0.00 44 1013.1
20260904200754 95 355 0.0 1.7 0.00 0.00 0.00 45 1013.2
20260904200254 95 355 0.0 1.7 0.00 0.00 0.00 44 1013.3
20260904195754 95 355 0.0 0.0 0.00 0.00 0.00 45 1013.4
20260904195254 96 355 0.0 1.7 0.00 0.00 0.00 43 1013.4
20260904195232 96 355 0.0 1.7 0.00 0.00 0.00 41 1013.4
20260904194754 96 355 0.0 1.7 0.00 0.00 0.00 42 1013.4
20260904194232 95 355 0.0 1.7 0.00 0.00 0.00 43 1013.6
20260904193754 96 355 0.0 1.7 0.00 0.00 0.00 42 1013.7
20260904193254 96 355 0.0 2.6 0.00 0.00 0.00 42 1013.7
20260904192754 96 355 0.0 1.7 0.00 0.00 0.00 42 1013.9
20260904192254 95 355 0.0 0.9 0.00 0.00 0.00 42 1014.0
20260904192233 95 355 0.0 1.7 0.00 0.00 0.00 42 1014.0
20260904191754 95 355 0.0 1.7 0.00 0.00 0.00 42 1014.1
20260904191254 95 355 0.0 1.7 0.00 0.00 0.00 42 1014.1
20260904190754 95 355 0.0 0.0 0.00 0.00 0.00 44 1014.1
20260904190254 95 355 0.0 2.6 0.00 0.00 0.00 45 1014.1
20260904185754 95 355 0.0 5.2 0.00 0.00 0.00 44 1014.1
20260904185254 95 332 0.0 0.9 0.00 0.00 0.00 45 1014.2
20260904185232 95 332 0.0 0.9 0.00 0.00 0.00 45 1014.3
20260904184754 94 332 0.9 1.7 0.00 0.00 0.00 45 1014.4
20260904184232 94 332 0.9 1.7 0.00 0.00 0.00 45 1014.4
20260904183754 94 332 0.9 1.7 0.00 0.00 0.00 45 1014.4
20260904183254 94 332 0.0 1.7 0.00 0.00 0.00 44 1014.5
20260904182754 95 332 0.9 0.9 0.00 0.00 0.00 47 1014.5
20260904182254 94 332 0.9 2.6 0.00 0.00 0.00 45 1014.6
20260904182232 94 332 0.0 2.6 0.00 0.00 0.00 45 1014.5
20260904181754 94 320 0.0 1.7 0.00 0.00 0.00 45 1014.7
20260904181254 94 320 0.0 2.6 0.00 0.00 0.00 48 1014.7
20260904180754 93 320 0.9 1.7 0.00 0.00 0.00 47 1014.7
20260904180254 93 320 0.9 2.6 0.00 0.00 0.00 47 1014.9
20260904180232 93 320 0.9 2.6 0.00 0.00 0.00 47 1014.8
20260904175754 93 34 0.9 2.6 0.00 0.00 0.00 48 1014.8
20260904175232 93 34 0.0 1.7 0.00 0.00 0.00 47 1014.9
20260904174754 93 34 0.0 2.6 0.00 0.00 0.00 46 1014.9
20260904174254 94 34 0.9 1.7 0.00 0.00 0.00 47 1014.9
20260904174232 94 34 0.9 2.6 0.00 0.00 0.00 47 1015.0
20260904173754 94 159 0.9 3.5 0.00 0.00 0.00 49 1015.1
20260904173232 94 128 0.0 2.6 0.00 0.00 0.00 48 1015.0